RH
61 56 66 71 76 72 92 86 75 97 95 99 89 98 99 98 98 97 99 98 99 100 100 97 99 100 100 100 100 99 94 88 86 80 74 74 73 75 76 79 85 88 84
66 64 82 98 80 74 92 85 78 98 100 98 87 87 99 99 98 98 98 100 100 99 98 99 99 99 100 100 100 99 90 100 89 82 70 78 76 78 82 84 84 80 76
68 70 92 97 100 100 92 80 83 98 100 93 87 94 99 98 99 99 99 99 96 100 98 99 99 98 100 99 99 98 94 94 95 81 81 76 80 79 82 87 73 77 88
74 80 91 99 99 96 96 82 88 98 100 94 92 92 99 99 100 99 100 100 100 100 99 100 100 99 99 98 98 96 90 86 81 84 91 87 86 86 80 88 93 86 85
80 90 94 100 100 98 98 89 98 99 100 92 84 97 99 98 97 99 99 100 99 97 98 100 100 100 100 100 99 100 99 99 95 98 93 100 95 99 99 92 91 95 91
94 100 99 100 100 100 94 95 100 100 96 90 95 99 98 98 100 99 100 100 98 93 98 100 100 100 100 100 100 100 100 99 99 100 98 92 96 95 94 94 100 99 99
98 98 100 100 100 100 99 96 100 100 90 93 95 99 98 100 98 100 100 100 100 99 99 100 100 100 100 100 100 100 100 100 100 100 96 96 92 88 92 99 97 95 96
98 99 100 100 100 100 98 99 100 95 99 92 97 98 98 99 90 95 96 100 98 98 95 100 99 100 100 99 100 100 100 100 100 100 100 94 90 87 95 98 98 100 100
99 100 99 100 100 100 100 100 100 98 98 100 100 98 100 98 99 96 97 99 98 100 99 99 100 99 100 100 100 100 100 100 98 96 93 87 90 100 100 100 100 100 100
99 100 99 100 100 100 100 100 100 100 99 100 100 100 100 100 98 96 99 100 98 98 99 100 100 99 100 99 97 94 98 98 97 98 99 100 100 100 100 100 100 100 100
100 100 100 100 100 100 100 100 100 100 100 100 100 100 99 100 100 100 99 97 100 99 100 99 99 100 100 100 100 100 99 100 100 100 100 100 100 100 99 100 100 100 100
98 99 99 100 98 100 100 100 100 100 100 99 100 100 100 100 100 100 100 100 99 100 100 100 99 100 100 100 100 100 100 100 100 100 100 100 100 100 99 99 99 100 100
98 98 99 100 100 99 100 100 100 100 100 100 100 100 100 99 100 100 100 100 100 100 100 99 100 100 100 100 100 100 100 100 100 100 100 99 99 99 97 97 97 96 95
94 98 98 99 100 100 99 100 99 100 100 100 100 100 100 100 100 100 100 100 100 100 100 100 100 100 100 100 100 100 100 100 100 100 99 98 98 97 97 95 91 89 84
95 96 97 97 98 98 98 99 100 100 99 99 99 99 100 100 99 100 100 100 100 98 98 100 98 100 99 99 100 100 99 98 97 98 97 96 97 95 80 51 32 24 16
95 96 96 96 96 96 96 96 97 97 98 98 99 98 98 100 100 100 100 99 100 96 100 98 99 100 98 99 97 96 96 96 96 96 95 88 74 50 33 16 10 9 8
94 95 96 95 96 96 96 95 95 96 96 95 95 96 100 100 97 97 97 96 98 98 92 93 95 96 96 96 94 94 92 89 83 72 56 36 21 16 15 17 21 20 19
94 94 94 97 98 96 96 96 96 95 95 96 96 95 93 94 93 94 96 95 96 91 90 91 91 93 93 91 90 84 74 57 40 27 19 16 15 16 22 27 34 37 41
90 93 94 95 93 93 92 92 92 94 96 96 96 97 99 97 97 97 91 82 85 88 90 89 87 82 75 66 56 43 33 27 24 20 19 23 27 29 34 48 54 51 44
96 96 92 94 94 94 93 90 91 92 92 95 96 99 98 90 86 84 84 84 84 84 82 71 62 52 40 33 30 26 22 22 24 26 28 29 30 29 23 21 24 33 49
93 94 96 96 95 95 96 95 94 93 92 91 95 97 90 76 68 59 53 45 41 38 34 27 23 21 22 21 21 22 23 25 30 30 28 25 21 21 24 30 32 44 35
97 96 95 94 95 95 95 94 94 93 91 85 78 67 60 51 50 47 44 41 39 39 42 36 34 35 38 35 33 27 25 22 21 23 21 24 24 23 22 29 32 32 30
95 96 96 97 96 95 94 94 86 72 62 54 47 41 35 30 33 35 38 47 52 47 43 39 31 29 28 26 28 28 26 22 23 23 19 20 25 30 26 26 30 35 32
96 94 94 96 96 93 87 74 66 58 52 47 42 38 33 30 26 25 23 23 22 21 22 21 21 23 22 21 22 22 19 18 21 24 22 23 26 25 30 31 29 32 32
97 97 95 94 89 82 80 77 71 65 58 48 42 36 31 27 23 20 18 19 20 19 17 17 18 18 18 18 18 18 19 20 22 23 21 21 21 21 23 24 26 30 35
95 95 95 97 97 96 93 90 87 84 77 74 63 52 41 30 23 20 19 20 19 19 19 19 21 22 22 22 22 22 23 24 24 24 23 25 26 27 27 28 30 32 37
Wind_Speed
30 30 28 29 30 33 35 35 31 33 31 34 32 28 32 32 31 31 28 28 29 26 25 25 27 28 34 37 32 33 38 35 26 26 28 27 24 27 27 28 26 24 26
31 30 25 22 21 29 32 29 33 33 35 32 27 25 27 32 32 33 29 30 27 26 26 25 27 26 36 39 35 35 34 31 26 23 29 25 25 25 25 25 23 23 19
32 27 23 20 22 28 24 25 34 33 37 31 27 26 26 27 31 31 27 27 26 24 25 24 26 29 33 32 38 34 35 29 22 20 24 29 27 27 24 23 23 23 20
34 25 22 22 23 22 24 28 34 35 35 28 26 24 25 26 28 28 29 25 23 20 23 25 27 33 33 35 37 39 40 34 32 29 18 24 28 26 24 26 23 18 21
34 26 21 20 23 23 24 29 31 38 32 29 25 25 24 21 25 28 27 24 22 21 20 23 23 28 30 38 40 42 40 37 40 36 29 25 24 23 22 19 20 24 27
34 29 22 19 22 23 24 30 35 36 30 26 26 25 23 21 22 23 23 23 20 18 20 23 25 30 28 28 34 39 43 40 46 40 37 33 38 32 29 30 27 26 26
31 27 22 19 23 24 24 30 36 34 27 29 27 24 21 18 18 21 22 21 20 19 17 17 18 20 21 28 32 34 27 29 33 40 33 28 28 31 33 33 31 29 30
27 24 21 15 21 21 24 28 37 28 32 27 26 23 20 18 17 18 18 17 16 14 15 14 15 15 17 18 23 30 29 27 29 25 27 27 27 28 26 25 30 31 34
25 21 19 11 20 21 31 36 34 34 30 30 26 26 24 21 18 18 17 17 15 15 15 14 12 14 14 15 16 20 20 21 23 25 27 28 26 25 27 26 30 31 30
23 21 19 15 13 22 30 31 34 34 33 31 31 28 26 24 20 20 18 18 17 16 16 14 14 14 14 15 16 18 19 20 21 22 23 25 26 29 33 33 31 30 26
20 19 17 12 5 18 31 33 33 35 34 34 35 33 30 24 21 21 20 19 17 17 17 16 15 13 14 14 13 14 17 19 23 24 25 25 24 23 23 20 17 15 16
20 19 20 17 7 4 27 33 34 34 36 35 32 29 27 25 24 23 21 19 18 17 18 18 18 16 16 17 18 22 23 25 26 23 20 16 15 13 10 8 8 9 10
21 22 22 22 19 12 10 29 34 37 38 34 30 27 24 23 24 25 25 24 23 23 21 20 18 17 18 18 18 20 22 22 22 19 16 12 10 8 7 7 6 7 8
26 23 23 26 27 26 21 18 18 25 31 29 25 23 22 19 18 20 22 22 21 17 17 16 12 12 12 12 15 15 14 15 15 14 14 13 12 11 11 10 10 11 10
24 25 25 27 31 33 34 31 26 24 21 20 21 23 24 25 21 19 18 19 19 19 17 17 17 20 20 19 19 18 17 16 14 14 15 16 16 15 14 13 11 11 11
22 23 25 26 29 33 34 36 36 33 31 30 28 25 29 31 26 26 24 23 22 20 22 23 24 23 24 23 22 22 20 18 18 17 17 16 16 15 14 13 11 10 10
20 21 23 23 26 30 34 37 38 35 37 36 33 30 30 30 26 23 23 23 22 23 26 27 26 24 24 23 22 21 21 18 16 15 15 15 15 14 12 12 11 9 10
17 19 22 24 26 28 29 33 34 34 36 33 28 26 25 25 24 20 18 20 24 24 27 28 27 25 23 21 19 18 17 16 15 15 15 14 13 12 12 11 11 10 9
15 15 15 16 19 20 23 27 30 30 29 27 24 22 21 21 22 22 20 22 25 25 23 23 22 20 19 17 15 15 15 15 14 12 12 11 11 10 12 12 11 10 9
13 12 12 12 13 15 17 19 20 20 21 20 20 20 17 17 21 21 20 20 21 20 18 19 19 18 17 16 14 13 13 12 12 11 11 10 10 9 9 9 8 8 9
10 11 11 12 14 15 15 15 15 14 16 17 18 15 11 12 17 17 17 17 18 17 17 17 19 17 15 14 12 11 11 11 10 9 8 7 6 6 6 6 7 7 7
10 10 10 12 13 15 16 16 15 13 13 14 14 13 10 12 14 14 14 14 15 15 14 12 13 13 11 11 9 8 7 8 8 8 7 6 5 4 5 5 6 5 4
9 10 10 11 11 11 11 11 11 10 10 10 11 11 11 12 13 13 13 12 11 10 10 8 8 9 9 8 7 6 4 4 5 4 2 3 3 3 4 4 4 5 7
10 10 10 10 9 9 9 9 9 8 8 8 8 9 9 10 11 11 10 10 9 9 10 9 8 8 7 6 6 5 4 4 3 3 2 3 3 3 4 5 5 6 7
9 10 10 10 9 8 8 8 8 8 8 7 7 7 8 7 7 8 9 9 9 8 8 7 7 6 5 4 4 4 4 3 3 4 4 4 5 6 6 7 8 8 9
5 5 7 7 8 8 7 7 7 6 6 5 4 5 6 7 7 7 7 7 6 6 5 5 5 3 3 3 3 2 1 2 3 5 5 5 5 5 6 7 7 7 8
Wind_Direction
315 307 287 267 261 242 242 247 247 238 241 221 232 231 226 232 225 227 225 225 226 229 229 231 233 236 223 200 199 201 201 207 214 213 219 218 219 220 222 225 225 232 244
315 309 290 283 258 254 240 246 239 230 226 225 233 231 229 222 225 224 224 222 221 223 227 227 228 226 229 220 217 209 195 203 202 223 212 215 219 217 225 223 230 233 238
317 308 285 259 250 237 235 261 230 227 220 215 225 235 227 224 223 224 221 224 221 227 225 229 225 224 226 216 215 218 201 200 203 181 200 212 220 209 212 210 221 233 241
322 307 284 258 249 262 253 250 223 219 210 211 229 229 222 224 219 216 218 222 224 228 228 228 226 225 228 223 216 210 203 208 220 209 212 219 216 210 220 219 216 245 272
324 313 290 263 245 257 244 236 224 209 201 219 222 213 216 219 217 217 219 219 220 222 227 232 237 235 232 232 224 220 213 214 212 213 219 205 192 194 205 233 255 272 268
327 316 300 261 239 248 239 223 213 201 199 211 203 205 209 214 213 205 207 212 212 217 224 233 240 242 246 247 241 238 236 237 222 219 218 230 231 235 248 260 265 261 257
326 316 301 251 244 244 230 219 207 195 197 197 203 203 206 201 195 196 203 208 206 214 215 218 221 225 233 239 235 228 240 242 234 224 219 220 228 239 250 256 254 257 257
331 321 300 244 226 238 235 219 202 196 191 195 199 193 187 184 179 180 183 184 182 190 201 200 202 205 210 216 230 232 226 223 216 221 234 244 250 256 257 250 261 262 252
345 339 313 280 219 220 209 199 192 183 180 189 187 185 187 182 176 178 173 166 164 171 178 176 178 182 196 206 212 218 222 229 235 236 238 244 249 250 247 257 261 249 240
356 356 343 304 215 200 199 194 188 180 181 188 183 188 186 187 181 178 176 179 174 179 183 185 185 178 183 187 197 208 217 229 235 234 233 229 246 248 256 258 255 253 250
3 9 12 333 250 183 179 190 187 187 181 177 180 180 183 185 186 182 184 188 190 187 191 198 200 203 203 204 205 213 221 228 230 234 239 240 243 249 256 258 253 243 243
16 32 39 42 9 187 165 175 181 188 189 191 192 181 176 174 181 185 194 201 202 205 201 202 204 208 217 224 224 229 232 230 229 227 228 229 235 237 231 226 224 226 231
34 41 55 64 65 56 132 150 156 165 168 167 174 181 183 194 197 192 193 198 200 205 206 206 212 214 220 219 218 226 229 225 221 216 211 207 189 185 181 177 171 163 156
41 45 54 69 77 84 77 82 124 137 150 149 151 155 156 155 164 172 177 186 196 199 189 176 181 200 192 193 178 179 181 180 183 179 170 163 159 148 141 133 139 138 143
51 52 56 65 75 81 86 90 91 92 97 114 122 129 130 126 121 129 138 143 150 155 153 150 142 139 143 142 141 141 144 147 153 150 148 144 140 138 137 138 138 135 135
55 56 64 71 77 84 87 86 88 94 104 108 112 112 106 111 121 125 125 129 133 131 143 130 128 129 128 130 131 130 132 136 136 138 138 137 136 139 141 140 139 138 140
62 68 66 71 82 90 93 95 93 92 93 93 96 103 106 104 102 108 116 121 125 138 126 122 124 124 123 124 126 127 127 127 128 131 135 138 141 141 143 140 137 137 134
66 71 79 85 87 90 94 99 101 100 96 94 93 96 98 100 104 108 118 127 124 117 117 122 122 123 124 125 127 128 127 129 135 137 140 142 144 146 145 141 143 141 130
73 76 82 88 90 97 102 104 103 102 100 101 102 97 97 103 110 114 123 114 111 108 109 109 110 114 116 119 122 126 129 134 135 139 141 145 147 151 149 151 156 156 161
78 85 92 98 104 101 100 101 103 104 107 105 99 95 101 108 107 107 107 107 106 108 113 115 118 120 122 126 130 132 134 134 137 148 153 153 156 153 152 159 167 178 189
76 88 90 92 97 102 110 110 109 110 106 101 95 96 97 99 102 104 105 106 110 114 119 122 122 122 124 126 131 138 141 137 139 147 148 150 157 159 163 184 199 203 214
93 95 95 92 91 93 95 102 107 105 98 97 101 102 101 101 105 106 106 109 114 119 121 120 121 125 132 138 140 139 139 138 144 156 163 167 175 177 189 191 209 232 252
76 85 89 90 90 93 97 95 94 93 92 89 90 96 103 106 110 113 115 116 116 114 114 121 118 119 116 118 121 125 124 124 139 148 176 196 194 214 236 244 247 251 259
81 82 87 96 102 101 99 99 95 94 93 93 95 98 98 102 108 109 112 115 119 123 127 125 118 116 118 122 127 128 123 137 162 185 216 243 240 244 243 263 279 286 290
81 84 88 90 93 95 99 97 98 98 98 100 104 102 99 100 103 108 111 113 116 120 120 119 122 122 123 131 126 132 149 168 191 224 245 254 271 280 277 284 288 288 288
83 87 93 101 101 101 98 99 97 93 93 90 84 82 89 100 110 119 121 122 119 122 127 116 110 120 121 119 119 131 171 230 249 260 267 273 283 294 293 285 282 283 283